George, South Africa

3:00 AM SAST on December 11, 2017 (GMT +0200)
George

Weather History for FAGG - July, 2013

Change the Weather History Date:

Wednesday, July 31, 2013

  Actual Average Record
Temperature  
Mean Temperature 56 °F -  
Max Temperature 71 °F 64 °F 85 °F (2017)
Min Temperature 40 °F 45 °F 37 °F (2002)
Degree Days  
Heating Degree Days 10    
Growing Degree Days 6 (Base 50)    
Moisture  
Dew Point 43 °F    
Average Humidity 68    
Maximum Humidity 93    
Minimum Humidity 25    
Precipitation  
Precipitation 0.00 in - - ()
Sea Level Pressure  
Sea Level Pressure 30.36 in    
Wind  
Wind Speed 3 mph ()    
Max Wind Speed 6 mph    
Max Gust Speed -    
Visibility 12.0 miles    
Events      
Averages and records for this station are not official NWS values.
T = Trace of Precipitation, MM = Missing Value Source: Averaged Metar Reports

Daily Weather History Graph

Daily Weather History Graph

Search for Another Location

Airport or City:

Trip Planner

Search our weather history database for the weather conditions in past years. The results will help you decide how hot, cold, wet, or windy it might be!

Date:

Astronomy

Jul. 31, 2013 Rise Set
Actual Time 7:23 AM SAST 5:50 PM SAST
Civil Twilight 6:57 AM SAST 6:16 PM SAST
Nautical Twilight 6:27 AM SAST 6:46 PM SAST
Astronomical Twilight 5:57 AM SAST 7:16 PM SAST
Moon 2:05 AM SAST (7/31) 12:43 PM SAST (7/31)
Length of Visible Light 11h 19m
Length of Day
10h 26m
Waning Crescent, 34% of the Moon is Illuminated
Jul 31
Waning Crescent
Aug 6
New
Aug 14
First Quarter
Aug 21
Full
Aug 28
Last Quarter

Hourly Weather History & Observations

Time (SAST) Temp. Windchill Dew Point Humidity Pressure Visibility Wind Dir Wind Speed Gust Speed Precip Events Conditions
12:00 AM 42.8 °F 41.1 °F 41.0 °F 93% 30.42 in - NNE 3.5 mph - N/A   Clear
1:00 AM 46.4 °F - 42.8 °F 87% 30.39 in - NW 2.3 mph - N/A   Clear
2:00 AM 44 °F - 41 °F 85% 30.42 in 12 mi NW 4.6 mph - -  
2:00 AM 44.6 °F 43.1 °F 41.0 °F 87% 30.39 in - NNW 3.5 mph - N/A   Clear
3:00 AM 42.8 °F - 41.0 °F 93% 30.39 in - North 2.3 mph - N/A   Clear
4:00 AM 42.8 °F 41.1 °F 39.2 °F 87% 30.36 in - North 3.5 mph - N/A   Clear
5:00 AM 42 °F - 41 °F 93% 30.42 in 12 mi North 3.5 mph - -  
5:00 AM 42.8 °F 41.1 °F 41.0 °F 93% 30.36 in - North 3.5 mph - N/A   Clear
6:00 AM 44.6 °F 42.2 °F 41.0 °F 87% 30.36 in - North 4.6 mph - N/A   Clear
7:00 AM 44.6 °F - 42.8 °F 93% 30.36 in - Variable 1.2 mph - N/A   Clear
8:00 AM 43 °F - 41 °F 89% 30.39 in 12 mi North 3.5 mph - -  
8:00 AM 42.8 °F 41.1 °F 41.0 °F 93% 30.36 in - North 3.5 mph - N/A   Clear
9:00 AM 51.8 °F - 48.2 °F 88% 30.39 in - Calm Calm - N/A   Clear
10:00 AM 57.2 °F - 48.2 °F 72% 30.39 in - Variable 2.3 mph - N/A   Clear
11:00 AM 64 °F - 46 °F 41% 30.40 in 12 mi NE 4.6 mph - -  
11:00 AM 64.4 °F - 46.4 °F 52% 30.39 in - NE 4.6 mph - N/A   Clear
12:00 PM 68.0 °F - 44.6 °F 43% 30.36 in - Variable 3.5 mph - N/A   Clear
1:00 PM 68.0 °F - 46.4 °F 46% 30.33 in - ESE 5.8 mph - N/A   Clear
2:00 PM 71 °F - 43 °F 25% 30.32 in 12 mi SE 5.8 mph - -   Clear
2:00 PM 71.6 °F - 42.8 °F 35% 30.30 in - SE 5.8 mph - N/A   Clear
3:00 PM 71.6 °F - 42.8 °F 35% 30.30 in - ESE 5.8 mph - N/A   Clear
4:00 PM 71.6 °F - 42.8 °F 35% 30.30 in - East 5.8 mph - N/A   Clear
5:00 PM 66 °F - 46 °F 38% 30.30 in 12 mi East 5.8 mph - -   Clear
5:00 PM 66.2 °F - 46.4 °F 49% 30.30 in - East 5.8 mph - N/A   Clear
9:00 PM 51.8 °F - 42.8 °F 71% 30.30 in - Variable 1.2 mph - N/A   Clear
10:00 PM 50.0 °F - 41.0 °F 71% 30.30 in - Variable 1.2 mph - N/A   Clear
11:00 PM 50.0 °F - 37.4 °F 62% 30.30 in - North 3.5 mph - N/A   Clear